When you browse on this site, cookies collect data to enhance your experience and personalize the content and advertising you see.
Visit our Privacy Policy to learn more. By continuing to use the site, you agree to this use of cookies and data.
  • Em Portugal
  • Lista de países
  • Para 7 dias
  • Temperatura da água
  • Mapa do tempo
  • Widgets de tempo
  • user-avatar
    Iniciar Sessão

    Previsão horária em Quito

    Hoje, 28 Maio, Quinta-feira

    Tempo Temperatura Precipitação Vento Pressão Humidade
    00:00 +18°C° 0 mm 1 m/s 623 mmHg 62%
    01:00 +18°C° 0 mm 1 m/s 623 mmHg 63%
    02:00 +18°C° 0 mm 1 m/s 623 mmHg 63%
    03:00 +18°C° 0 mm 1 m/s 623 mmHg 62%
    04:00 +16°C° 0 mm 0 m/s 623 mmHg 62%
    05:00 +18°C° 0 mm 1 m/s 623 mmHg 63%
    06:00 +18°C° 0 mm 1 m/s 624 mmHg 63%
    07:00 +18°C° 0 mm 1 m/s 625 mmHg 64%
    08:00 +20°C° 0 mm 1 m/s 625 mmHg 57%
    09:00 +23°C° 0 mm 2 m/s 626 mmHg 51%
    10:00 +25°C° 0 mm 2 m/s 626 mmHg 44%
    11:00 +26°C° 0 mm 2 m/s 626 mmHg 40%
    12:00 +27°C° 0 mm 2 m/s 626 mmHg 37%
    13:00 +28°C° 0 mm 2 m/s 626 mmHg 33%
    14:00 +28°C° 0 mm 2 m/s 625 mmHg 34%
    15:00 +27°C° 0 mm 2 m/s 625 mmHg 35%
    16:00 +27°C° 0 mm 2 m/s 624 mmHg 36%
    17:00 +24°C° 0 mm 2 m/s 624 mmHg 41%
    18:00 +22°C° 0 mm 1 m/s 623 mmHg 46%
    19:00 +20°C° 0 mm 1 m/s 623 mmHg 51%
    20:00 +19°C° 0 mm 1 m/s 623 mmHg 52%
    21:00 +17°C° 0 mm 0 m/s 623 mmHg 52%
    22:00 +16°C° 0 mm 0 m/s 623 mmHg 52%
    23:00 +16°C° 0 mm 0 m/s 623 mmHg 54%

    Amanhã, 29 Maio, Sexta-feira

    Tempo Temperatura Precipitação Vento Pressão Humidade
    00:00 +16°C° 0 mm 1 m/s 623 mmHg 56%
    01:00 +16°C° 0 mm 1 m/s 622 mmHg 58%
    02:00 +15°C° 0 mm 1 m/s 622 mmHg 61%
    03:00 +15°C° 0 mm 1 m/s 622 mmHg 65%
    04:00 +14°C° 0 mm 1 m/s 622 mmHg 68%
    05:00 +14°C° 0 mm 1 m/s 622 mmHg 66%
    06:00 +15°C° 0 mm 1 m/s 623 mmHg 65%
    07:00 +15°C° 0 mm 1 m/s 624 mmHg 63%
    08:00 +18°C° 0 mm 2 m/s 624 mmHg 54%
    09:00 +21°C° 0 mm 3 m/s 625 mmHg 45%
    10:00 +23°C° 0 mm 4 m/s 626 mmHg 36%
    11:00 +25°C° 0 mm 3 m/s 626 mmHg 35%
    12:00 +26°C° 0 mm 3 m/s 625 mmHg 33%
    13:00 +27°C° 0 mm 3 m/s 625 mmHg 31%
    14:00 +27°C° 0 mm 2 m/s 624 mmHg 32%
    15:00 +26°C° 0 mm 2 m/s 624 mmHg 32%
    16:00 +26°C° 0 mm 1 m/s 623 mmHg 32%
    17:00 +23°C° 0 mm 1 m/s 623 mmHg 37%
    18:00 +21°C° 0 mm 1 m/s 623 mmHg 42%
    19:00 +16°C° 0 mm 0 m/s 622 mmHg 48%
    20:00 +16°C° 0 mm 0 m/s 622 mmHg 49%
    21:00 +15°C° 0 mm 0 m/s 622 mmHg 50%
    22:00 +15°C° 0 mm 0 m/s 623 mmHg 51%
    23:00 +15°C° 0 mm 1 m/s 622 mmHg 54%

    Depois de amanhã, 30 Maio, Sábado

    Tempo Temperatura Precipitação Vento Pressão Humidade
    00:00 +15°C° 0 mm 1 m/s 622 mmHg 56%
    01:00 +14°C° 0 mm 1 m/s 622 mmHg 58%
    02:00 +14°C° 0 mm 1 m/s 622 mmHg 58%
    03:00 +13°C° 0 mm 1 m/s 622 mmHg 59%
    04:00 +13°C° 0 mm 1 m/s 622 mmHg 59%
    05:00 +14°C° 0 mm 1 m/s 622 mmHg 58%
    06:00 +14°C° 0 mm 1 m/s 623 mmHg 57%
    07:00 +14°C° 0 mm 1 m/s 623 mmHg 57%
    08:00 +17°C° 0 mm 2 m/s 624 mmHg 48%
    09:00 +20°C° 0 mm 3 m/s 625 mmHg 39%
    10:00 +25°C° 0 mm 4 m/s 626 mmHg 30%
    11:00 +25°C° 0 mm 4 m/s 626 mmHg 28%
    12:00 +26°C° 0 mm 3 m/s 625 mmHg 26%
    13:00 +27°C° 0 mm 3 m/s 625 mmHg 25%
    14:00 +27°C° 0 mm 3 m/s 625 mmHg 24%
    15:00 +27°C° 0 mm 2 m/s 624 mmHg 24%
    16:00 +26°C° 0 mm 2 m/s 624 mmHg 24%
    17:00 +23°C° 0 mm 1 m/s 623 mmHg 30%
    18:00 +20°C° 0 mm 1 m/s 623 mmHg 35%
    19:00 +15°C° 0 mm 0 m/s 622 mmHg 41%
    20:00 +15°C° 0 mm 0 m/s 623 mmHg 42%
    21:00 +14°C° 0 mm 0 m/s 623 mmHg 43%
    22:00 +15°C° 0 mm 1 m/s 623 mmHg 43%
    23:00 +14°C° 0 mm 1 m/s 623 mmHg 46%

    31 Maio, Domingo

    Tempo Temperatura Precipitação Vento Pressão Humidade
    00:00 +14°C° 0 mm 1 m/s 623 mmHg 48%
    01:00 +13°C° 0 mm 1 m/s 622 mmHg 50%
    02:00 +13°C° 0 mm 1 m/s 622 mmHg 52%
    03:00 +12°C° 0 mm 1 m/s 622 mmHg 54%
    04:00 +12°C° 0 mm 1 m/s 622 mmHg 57%
    05:00 +12°C° 0 mm 1 m/s 622 mmHg 56%
    06:00 +13°C° 0 mm 1 m/s 623 mmHg 55%
    07:00 +14°C° 0 mm 1 m/s 624 mmHg 55%
    08:00 +17°C° 0 mm 2 m/s 625 mmHg 48%
    09:00 +20°C° 0 mm 3 m/s 625 mmHg 41%
    10:00 +25°C° 0 mm 4 m/s 626 mmHg 33%
    11:00 +25°C° 0 mm 4 m/s 626 mmHg 32%
    12:00 +26°C° 0 mm 3 m/s 626 mmHg 31%
    13:00 +27°C° 0 mm 3 m/s 625 mmHg 30%
    14:00 +27°C° 0 mm 3 m/s 625 mmHg 31%
    15:00 +26°C° 0 mm 3 m/s 625 mmHg 32%
    16:00 +26°C° 0 mm 3 m/s 624 mmHg 33%
    17:00 +23°C° 0 mm 2 m/s 624 mmHg 38%
    18:00 +21°C° 0 mm 1 m/s 623 mmHg 44%
    19:00 +16°C° 0 mm 0 m/s 623 mmHg 49%
    20:00 +18°C° 0 mm 1 m/s 623 mmHg 51%
    21:00 +16°C° 0 mm 1 m/s 624 mmHg 53%
    22:00 +16°C° 0 mm 1 m/s 624 mmHg 55%
    23:00 +15°C° 0 mm 1 m/s 624 mmHg 58%

    1 Junho, Segunda-feira

    Tempo Temperatura Precipitação Vento Pressão Humidade
    00:00 +14°C° 0 mm 1 m/s 624 mmHg 61%
    01:00 +14°C° 0 mm 1 m/s 623 mmHg 63%
    02:00 +13°C° 0 mm 1 m/s 623 mmHg 65%
    03:00 +13°C° 0 mm 1 m/s 623 mmHg 67%
    04:00 +13°C° 0 mm 1 m/s 623 mmHg 69%
    05:00 +13°C° 0 mm 1 m/s 623 mmHg 68%
    06:00 +14°C° 0 mm 1 m/s 624 mmHg 66%
    07:00 +14°C° 0 mm 1 m/s 624 mmHg 65%
    08:00 +17°C° 0 mm 2 m/s 625 mmHg 56%
    09:00 +20°C° 0 mm 3 m/s 626 mmHg 46%
    10:00 +23°C° 0 mm 4 m/s 626 mmHg 37%
    11:00 +25°C° 0 mm 4 m/s 626 mmHg 34%
    12:00 +26°C° 0 mm 3 m/s 626 mmHg 31%
    13:00 +27°C° 0 mm 3 m/s 626 mmHg 28%
    14:00 +27°C° 0 mm 3 m/s 625 mmHg 29%
    15:00 +26°C° 0 mm 3 m/s 625 mmHg 30%
    16:00 +26°C° 0 mm 2 m/s 624 mmHg 31%
    17:00 +23°C° 0 mm 2 m/s 624 mmHg 37%
    18:00 +20°C° 0 mm 1 m/s 623 mmHg 44%
    19:00 +16°C° 0 mm 0 m/s 623 mmHg 50%
    20:00 +18°C° 0 mm 1 m/s 623 mmHg 48%
    21:00 +19°C° 0 mm 1 m/s 624 mmHg 46%
    22:00 +20°C° 0 mm 1 m/s 625 mmHg 44%
    23:00 +19°C° 0 mm 1 m/s 624 mmHg 48%

    2 Junho, Terça-feira

    Tempo Temperatura Precipitação Vento Pressão Humidade
    00:00 +18°C° 0 mm 1 m/s 624 mmHg 52%
    01:00 +16°C° 0 mm 1 m/s 623 mmHg 56%
    02:00 +16°C° 0 mm 1 m/s 623 mmHg 58%
    03:00 +15°C° 0 mm 1 m/s 623 mmHg 59%
    04:00 +15°C° 0 mm 1 m/s 623 mmHg 61%
    05:00 +15°C° 0 mm 1 m/s 623 mmHg 60%
    06:00 +15°C° 0 mm 1 m/s 624 mmHg 60%
    07:00 +15°C° 0 mm 1 m/s 624 mmHg 59%
    08:00 +18°C° 0 mm 2 m/s 625 mmHg 52%
    09:00 +20°C° 0 mm 3 m/s 625 mmHg 46%
    10:00 +23°C° 0 mm 4 m/s 626 mmHg 39%
    11:00 +25°C° 0 mm 3 m/s 626 mmHg 36%
    12:00 +26°C° 0 mm 3 m/s 625 mmHg 33%
    13:00 +27°C° 0 mm 3 m/s 625 mmHg 30%
    14:00 +26°C° 0 mm 3 m/s 624 mmHg 30%
    15:00 +26°C° 0 mm 2 m/s 624 mmHg 30%
    16:00 +26°C° 0 mm 2 m/s 624 mmHg 31%
    17:00 +23°C° 0 mm 2 m/s 623 mmHg 35%
    18:00 +21°C° 0 mm 1 m/s 623 mmHg 39%
    19:00 +19°C° 0 mm 1 m/s 622 mmHg 43%
    20:00 +19°C° 0 mm 1 m/s 623 mmHg 43%
    21:00 +19°C° 0 mm 1 m/s 623 mmHg 42%
    22:00 +19°C° 0 mm 1 m/s 623 mmHg 42%
    23:00 +18°C° 0 mm 1 m/s 623 mmHg 46%
    Mostrar mais